Alma, MI

7:20 AM EDT on June 19, 2018 (GMT -0400)
Gratiot Community

Weather History for KAMN - June, 2018

Change the Weather History Date:

Wednesday, June 13, 2018

  Actual Average Record
Temperature  
Mean Temperature 69 °F -  
Max Temperature 78 °F 78 °F 93 °F (1956)
Min Temperature 59 °F 54 °F 37 °F (2012)
Cooling Degree Days 4    
Growing Degree Days 19 (Base 50)    
Moisture  
Dew Point 59 °F    
Average Humidity 71    
Maximum Humidity 100    
Minimum Humidity 33    
Precipitation  
Precipitation 0.00 in - - ()
Sea Level Pressure  
Sea Level Pressure 29.87 in    
Wind  
Wind Speed 9 mph (West)    
Max Wind Speed 24 mph    
Max Gust Speed 38 mph    
Visibility 8 miles    
Events      
Averages and records for this station are not official NWS values.
T = Trace of Precipitation, MM = Missing Value Source: NWS Daily Summary

Daily Weather History Graph

Daily Weather History Graph

Search for Another Location

Airport or City:

Astronomy

Jun. 13, 2018 Rise Set
Actual Time 5:57 AM EDT 9:20 PM EDT
Civil Twilight 5:22 AM EDT 9:55 PM EDT
Nautical Twilight 4:36 AM EDT 10:41 PM EDT
Astronomical Twilight 3:38 AM EDT 11:39 PM EDT
Moon 6:01 AM EDT (6/13) 9:12 PM EDT (6/13)
Length of Visible Light 16h 33m
Length of Day
15h 22m
Waning Crescent, 0% of the Moon is Illuminated
Jun 13
Waning Crescent
Jun 13
New
Jun 20
First Quarter
Jun 28
Full
Jul 6
Last Quarter

Hourly Weather History & Observations

Time (EDT) Temp. Dew Point Humidity Pressure Visibility Wind Dir Wind Speed Gust Speed Precip Events Conditions
12:16 AM 68.4 °F 67.3 °F 96% 29.86 in 7.0 mi SSW 11.5 mph - N/A   Scattered Clouds
12:36 AM 68.0 °F 67.1 °F 97% 29.86 in 7.0 mi SSW 8.1 mph - N/A   Clear
12:56 AM 67.1 °F 66.4 °F 98% 29.86 in 5.0 mi SSW 4.6 mph - N/A   Clear
1:16 AM 66.6 °F 66.2 °F 99% 29.86 in 5.0 mi SSW 4.6 mph - N/A   Clear
1:36 AM 66.4 °F 66.2 °F 99% 29.86 in 5.0 mi SW 4.6 mph - N/A   Clear
1:56 AM 66.7 °F 66.6 °F 99% 29.85 in 5.0 mi SW 4.6 mph - N/A   Clear
2:16 AM 66.2 °F 66.2 °F 100% 29.84 in 5.0 mi SW 4.6 mph - N/A   Clear
2:36 AM 65.5 °F 65.3 °F 99% 29.84 in 4.0 mi SW 4.6 mph - N/A   Clear
2:56 AM 65.5 °F 65.5 °F 100% 29.84 in 4.0 mi SW 4.6 mph - N/A   Clear
3:16 AM 65.3 °F 65.3 °F 100% 29.83 in 4.0 mi SSW 4.6 mph - N/A   Clear
3:36 AM 65.1 °F 65.1 °F 100% 29.84 in 4.0 mi SW 5.8 mph - N/A   Scattered Clouds
3:57 AM 66.4 °F 66.4 °F 100% 29.83 in 4.0 mi WSW 5.8 mph - N/A   Overcast
4:17 AM 66.6 °F 66.6 °F 100% 29.82 in 5.0 mi SW 3.5 mph - N/A   Overcast
4:37 AM 66.7 °F 66.7 °F 100% 29.82 in 5.0 mi WSW 4.6 mph - N/A   Overcast
4:57 AM 66.9 °F 66.9 °F 100% 29.81 in 5.0 mi SW 3.5 mph - N/A   Overcast
5:17 AM 67.1 °F 66.7 °F 99% 29.81 in 5.0 mi WSW 3.5 mph - N/A   Overcast
5:37 AM 66.6 °F 66.4 °F 99% 29.82 in 5.0 mi WSW 4.6 mph - N/A   Overcast
5:57 AM 67.1 °F 66.7 °F 99% 29.80 in 4.0 mi SW 4.6 mph - N/A   Overcast
6:17 AM 67.1 °F 66.4 °F 98% 29.81 in 3.0 mi WSW 6.9 mph - N/A   Overcast
6:37 AM 67.1 °F 66.6 °F 98% 29.81 in 2.5 mi WSW 5.8 mph - N/A   Overcast
6:57 AM 67.3 °F 66.7 °F 98% 29.81 in 2.5 mi SSW 4.6 mph - N/A   Overcast
7:17 AM 67.3 °F 67.1 °F 99% 29.81 in 2.5 mi SW 5.8 mph - N/A   Overcast
7:38 AM 67.8 °F 67.3 °F 98% 29.81 in 2.5 mi SW 6.9 mph - N/A   Overcast
7:58 AM 68.0 °F 67.6 °F 99% 29.81 in 2.0 mi SW 5.8 mph - N/A   Overcast
8:15 AM 68.5 °F 68.0 °F 98% 29.81 in 2.0 mi SW 5.8 mph - N/A   Overcast
8:35 AM 69.1 °F 68.4 °F 98% 29.81 in 2.0 mi WSW 5.8 mph - N/A   Overcast
8:55 AM 69.4 °F 68.5 °F 97% 29.82 in 2.0 mi WSW 8.1 mph - N/A   Overcast
9:15 AM 70.9 °F 69.6 °F 96% 29.81 in 2.5 mi SW 6.9 mph - N/A   Overcast
9:35 AM 72.7 °F 69.4 °F 90% 29.81 in 4.0 mi WSW 6.9 mph - N/A   Overcast
9:55 AM 74.3 °F 69.3 °F 84% 29.82 in 7.0 mi WSW 9.2 mph 18.4 mph N/A   Mostly Cloudy
10:15 AM 75.7 °F 69.1 °F 80% 29.82 in 10.0 mi West 13.8 mph 19.6 mph N/A   Mostly Cloudy
10:35 AM 75.4 °F 68.2 °F 78% 29.82 in 10.0 mi West 13.8 mph 27.6 mph N/A   Mostly Cloudy
10:56 AM 73.6 °F 67.3 °F 81% 29.83 in 10.0 mi West 12.7 mph 27.6 mph N/A   Mostly Cloudy
11:16 AM 76.3 °F 68.2 °F 76% 29.82 in 10.0 mi WSW 12.7 mph 26.5 mph N/A   Scattered Clouds
11:36 AM 77.2 °F 67.5 °F 72% 29.82 in 10.0 mi West 13.8 mph 25.3 mph N/A   Scattered Clouds
11:56 AM 77.2 °F 63.9 °F 63% 29.83 in 10.0 mi West 16.1 mph 29.9 mph N/A   Scattered Clouds
12:16 PM 78.6 °F 65.3 °F 64% 29.83 in 10.0 mi West 16.1 mph 24.2 mph N/A   Mostly Cloudy
12:36 PM 77.9 °F 59.9 °F 54% 29.84 in 10.0 mi West 23.0 mph 28.8 mph N/A   Scattered Clouds
12:56 PM 76.3 °F 58.6 °F 54% 29.85 in 10.0 mi West 24.2 mph 33.4 mph N/A   Scattered Clouds
1:16 PM 76.1 °F 57.4 °F 52% 29.86 in 10.0 mi WNW 19.6 mph 31.1 mph N/A   Clear
1:36 PM 75.4 °F 57.2 °F 53% 29.86 in 10.0 mi NW 21.9 mph 31.1 mph N/A   Mostly Cloudy
1:56 PM 76.6 °F 55.9 °F 49% 29.86 in 10.0 mi West 17.3 mph 27.6 mph N/A   Scattered Clouds
2:18 PM 77.2 °F 55.4 °F 47% 29.87 in 10.0 mi West 17.3 mph 38.0 mph N/A   Mostly Cloudy
2:38 PM 76.3 °F 52.0 °F 43% 29.88 in 10.0 mi WNW 21.9 mph 33.4 mph N/A   Scattered Clouds
2:58 PM 77.4 °F 52.9 °F 42% 29.88 in 10.0 mi WNW 15.0 mph 31.1 mph N/A   Scattered Clouds
3:19 PM 77.2 °F 52.0 °F 41% 29.89 in 10.0 mi WNW 17.3 mph 29.9 mph N/A   Scattered Clouds
3:39 PM 77.9 °F 53.6 °F 43% 29.89 in 10.0 mi WNW 16.1 mph 23.0 mph N/A   Scattered Clouds
3:59 PM 76.6 °F 50.5 °F 40% 29.89 in 10.0 mi WNW 19.6 mph 31.1 mph N/A   Scattered Clouds
4:19 PM 77.4 °F 53.6 °F 44% 29.89 in 10.0 mi NW 16.1 mph 21.9 mph N/A   Scattered Clouds
4:39 PM 76.8 °F 51.3 °F 41% 29.90 in 10.0 mi WNW 15.0 mph 25.3 mph N/A   Scattered Clouds
4:59 PM 77.0 °F 51.1 °F 40% 29.90 in 10.0 mi WNW 16.1 mph 23.0 mph N/A   Scattered Clouds
5:19 PM 76.3 °F 50.4 °F 40% 29.90 in 10.0 mi NW 13.8 mph 24.2 mph N/A   Scattered Clouds
5:39 PM 76.5 °F 51.1 °F 41% 29.91 in 10.0 mi NW 15.0 mph 23.0 mph N/A   Scattered Clouds
5:59 PM 76.5 °F 49.6 °F 39% 29.91 in 10.0 mi WNW 16.1 mph 20.7 mph N/A   Scattered Clouds
6:19 PM 76.1 °F 48.2 °F 37% 29.92 in 10.0 mi WNW 13.8 mph 20.7 mph N/A   Clear
6:39 PM 75.7 °F 47.8 °F 37% 29.93 in 10.0 mi WNW 13.8 mph 28.8 mph N/A   Clear
7:00 PM 75.6 °F 45.5 °F 34% 29.94 in 10.0 mi NW 11.5 mph 20.7 mph N/A   Clear
7:15 PM 75.4 °F 47.3 °F 37% 29.94 in 10.0 mi WNW 13.8 mph 19.6 mph N/A   Clear
7:35 PM 74.7 °F 45.0 °F 35% 29.95 in 10.0 mi WNW 16.1 mph 21.9 mph N/A   Clear
7:55 PM 73.9 °F 43.3 °F 33% 29.95 in 10.0 mi WNW 12.7 mph 18.4 mph N/A   Clear
8:15 PM 73.4 °F 42.4 °F 33% 29.96 in 10.0 mi WNW 13.8 mph 17.3 mph N/A   Clear
8:35 PM 71.8 °F 43.5 °F 36% 29.96 in 10.0 mi WNW 9.2 mph - N/A   Clear
8:55 PM 69.4 °F 47.3 °F 45% 29.96 in 10.0 mi West 10.4 mph - N/A   Clear
9:15 PM 67.3 °F 47.7 °F 49% 29.96 in 10.0 mi West 11.5 mph - N/A   Clear
9:37 PM 64.6 °F 48.9 °F 57% 29.96 in 10.0 mi West 8.1 mph - N/A   Clear
9:58 PM 63.5 °F 51.3 °F 64% 29.98 in 10.0 mi WSW 3.5 mph - N/A   Clear
10:18 PM 62.4 °F 50.9 °F 66% 29.99 in 10.0 mi WSW 4.6 mph - N/A   Clear
10:38 PM 62.8 °F 49.3 °F 61% 29.99 in 10.0 mi WSW 4.6 mph - N/A   Clear
10:58 PM 60.8 °F 49.5 °F 66% 30.00 in 10.0 mi WSW 3.5 mph - N/A   Clear
11:18 PM 60.3 °F 49.5 °F 68% 30.00 in 10.0 mi SW 3.5 mph - N/A   Clear
11:38 PM 60.4 °F 49.3 °F 67% 30.00 in 10.0 mi SW 4.6 mph - N/A   Clear
11:58 PM 59.9 °F 49.6 °F 69% 29.99 in 10.0 mi WSW 3.5 mph - N/A   Clear